Погода в Селине

Россия / Костромская область     58°50′53″N   45°09′45″E
темп.,
°C
ветер,
м/с
пор.,
м/с
влажн.,
%
обл.,
%
осадки,
мм/ч
давл.,
гПа
погр.,
м
23 апреля, пт
пт2300:00+5ююв21091100 0.0 1019274
03:00+4ю2993100 0.0 1019202
06:00+5ююв3108812 0.0 1020317
09:00+9ю596991 0.0 1021553
12:00+14ю585133 0.0 10201701
15:00+15ю4749100 0.0 10182091
18:00+12ююв41060100 0.0 1019470
21:00+9юв3107786 0.1 1019276
24 апреля, сб
сб2400:00+8юв3979100 0.0 1018244
03:00+7вюв3107997 0.0 1017317
06:00+7вюв4118399 0.0 1016376
09:00+11юв6106318 0.2 10141013
12:00+12юв6854100 0.2 10131722
15:00+12юв5857100 0.3 10111563
18:00+10вюв5967100 0.0 10091138
21:00+7вюв51084100 0.1 10081128
25 апреля, вс
вс2500:00+6вюв4989100 0.1 10051112
03:00+6вюв4894100 2.0 10031036
06:00+5в4897100 1.6 10001013
09:00+5вюв4795100 2.3 9991064
12:00+3ююв3693100 0.4 1000785
15:00+2ююз4996100 0.6 1001724
18:00+1юз61396100 0.9 1002763
21:00+1юз61397100 2.7 10031107
26 апреля, пн
пн2600:00+1зюз71497100 1.7 10031096
03:00+1юз61497100 3.7 10041083
06:00+1юз71497100 1.8 10051132
09:00+3зюз61382100 2.1 10061248
12:00+6зюз71272100 0.2 10071613
15:00+6зюз61066100 0.4 10081527
18:00+5зюз4971100 0.1 1008943
21:00+2юз31088100 0.1 1009267
27 апреля, вт
вт2700:000юз28935 0.0 1009164
03:00−1юз28920 0.0 1008141
06:00+1зюз27834 0.0 1008212
09:00+6зюз46575 0.0 10071230
12:00+8з474795 0.2 10062128
15:00+8з464898 0.4 10061760
18:00+6з376794 0.7 1007490
21:00+2з2586100 0.8 100893